CAPE
0 3 6 18 10 14 1 1 3 30 0 2 5 10 5 4 10 5 2 10 43 55 31 26 15 1 47 0 23 0 24 45 6 2 11 7 10 13 6 19 22 5 24 1
0 0 9 13 3 3 20 12 1 34 0 2 3 7 9 4 4 5 1 17 72 95 77 59 76 66 0 1 44 73 24 7 30 39 24 1 10 29 34 36 18 26 9 20
34 5 20 10 8 6 52 16 8 17 2 0 0 4 3 4 7 10 14 23 52 90 83 74 88 101 36 6 21 0 16 52 24 27 9 24 17 52 30 30 19 7 12 35
4 2 4 20 2 30 44 8 9 1 1 2 10 15 7 5 6 7 10 1 17 34 5 43 75 118 48 23 0 26 66 63 42 7 0 3 18 27 28 20 14 19 11 7
14 17 1 15 1 6 82 18 4 15 2 12 7 18 7 2 5 3 4 0 1 3 0 0 8 94 113 61 41 52 22 38 43 0 0 0 0 0 0 0 1 8 6 1
23 16 1 10 2 1 34 0 0 15 2 12 9 8 2 4 1 1 1 0 1 5 0 0 14 2 57 40 34 34 40 44 15 5 13 5 0 0 0 0 0 0 0 2
12 18 3 1 2 4 0 5 3 2 5 21 4 11 11 6 0 1 0 5 5 2 0 1 0 0 0 4 9 33 28 35 16 8 13 0 0 0 0 0 0 1 0 0
0 22 2 0 1 4 15 0 16 0 0 5 12 5 1 7 12 2 0 0 0 0 2 4 11 12 1 1 5 3 3 20 2 0 0 0 0 0 0 0 0 0 0 0
3 6 22 13 0 9 4 0 10 4 0 0 6 7 6 4 1 0 3 0 3 10 19 22 3 5 3 3 8 0 9 9 1 0 0 0 0 0 0 0 0 0 0 0
5 4 12 1 0 0 1 0 0 0 0 0 1 11 1 2 0 0 1 0 0 20 20 15 9 4 0 4 5 1 1 4 0 2 0 0 0 0 0 0 0 0 0 0
1 0 0 5 0 0 4 0 0 7 0 0 11 3 8 8 2 1 0 0 0 7 15 18 14 11 8 6 3 0 0 5 6 5 7 0 0 0 0 0 0 0 0 0
0 0 1 7 1 0 1 0 1 0 6 0 1 0 0 1 17 8 0 0 0 1 0 2 13 10 9 0 0 4 6 0 0 0 0 0 0 0 0 0 0 0 0 0
7 0 0 13 0 0 1 0 0 0 0 2 1 0 0 0 0 0 0 0 1 0 0 6 16 8 2 5 1 15 0 3 6 8 0 0 0 0 0 0 0 0 0 0
10 2 0 0 0 0 0 0 2 0 0 1 0 0 0 0 0 0 0 0 2 26 14 21 23 19 7 9 6 0 7 0 0 0 0 1 0 0 0 1 0 0 0 0
14 2 0 0 0 0 1 0 0 0 0 0 2 0 0 0 0 0 22 27 34 33 33 23 5 11 15 8 2 0 1 4 1 0 0 0 0 0 0 0 0 0 0 0
0 4 1 0 2 0 1 0 0 0 0 0 0 0 0 2 6 11 9 35 34 17 16 23 29 18 12 12 3 0 0 0 3 2 0 0 0 0 0 0 0 0 0 0
0 0 2 1 3 5 5 0 0 0 0 0 1 0 0 3 11 10 21 21 21 27 36 31 15 21 4 8 3 0 0 0 2 0 0 0 0 0 0 0 0 0 0 0
0 1 13 5 3 21 3 0 0 0 0 0 0 0 1 0 2 0 0 16 25 23 20 13 27 6 13 2 0 0 0 0 1 1 0 0 0 0 0 0 0 0 0 0
1 14 12 4 5 5 1 0 0 0 0 0 1 1 0 1 0 1 0 3 12 0 14 12 6 10 4 0 0 0 0 0 0 0 0 0 0 0 0 0 0 0 0 0
11 7 0 0 2 0 1 0 3 4 0 0 1 0 1 0 1 2 0 3 3 5 2 4 3 0 0 0 0 0 0 0 0 0 0 0 0 0 0 0 0 0 0 0
1 0 0 0 0 0 0 0 0 0 0 0 0 0 0 0 0 0 1 3 1 6 6 5 0 0 0 0 0 0 0 0 0 0 0 0 0 0 0 0 0 0 0 0
0 0 1 1 0 0 0 0 0 0 0 0 1 3 2 0 0 1 2 1 0 3 3 0 0 0 0 0 0 0 0 0 0 0 0 0 0 0 0 0 0 0 0 0
1 0 0 0 0 0 0 0 1 1 0 0 1 0 0 1 1 3 0 0 0 0 2 0 0 0 0 0 0 0 0 0 0 0 0 0 0 0 0 0 0 0 0 0
0 0 0 0 0 0 0 0 0 0 0 2 0 0 1 2 0 0 0 0 0 0 0 0 0 0 0 0 0 0 0 0 0 0 0 0 0 0 0 0 0 0 0 0
0 0 0 0 0 1 1 0 0 0 2 0 0 0 0 0 0 0 0 0 0 0 0 0 0 0 0 0 0 0 0 0 0 0 0 0 0 0 0 0 0 0 0 0
0 1 1 1 2 1 0 0 2 3 0 0 0 0 0 0 0 0 0 0 0 0 0 0 0 0 0 0 0 0 0 0 0 0 0 0 0 0 0 0 0 0 0 0
0 1 3 2 0 0 1 1 1 0 0 0 0 0 0 0 0 0 0 0 0 0 0 0 0 0 0 0 0 0 0 0 0 0 0 0 0 0 0 0 0 0 0 0
CIN
0 0 -4 -3 -29 -42 -2 0 0 0 0 0 -1 0 0 -2 -2 -2 -27 -15 -5 -2 -2 -2 -7 -16 -5 0 -10 0 -5 -3 -17 -1 -7 -20 -5 -4 -3 -3 -4 -4 -4 -1
-2 0 -8 -7 -18 -47 -18 -13 0 -11 0 0 0 -1 0 -1 -1 -2 -3 -4 -3 -3 -3 -3 -3 -1 -23 -43 -29 -4 -6 -6 -10 -4 -10 -9 -5 -2 -6 -5 -4 -3 -2 -4
0 0 -1 -6 -28 -73 -23 -28 -29 -10 0 0 -1 0 0 0 -2 -1 -3 -2 -12 -19 -6 -13 -2 -1 -66 -77 -19 0 -34 -3 -4 -2 -6 -3 -4 -4 -3 -3 -3 -1 -4 -3
0 0 -1 -20 -33 -52 -16 -45 -19 -2 0 0 0 0 -1 0 -3 -1 -3 -2 -15 -3 -5 -2 -5 -1 -42 -56 0 -30 -12 -3 -3 -10 -6 -3 -8 -4 -3 -2 -2 -2 -4 -2
-2 0 0 -3 0 -51 -6 -38 -39 -1 -7 0 0 0 0 0 -2 -2 -2 -8 -17 -12 0 0 -13 -2 -3 -3 -29 -11 -26 -3 -3 0 0 0 0 0 0 0 -3 -2 -3 -3
0 0 -16 -6 -21 -28 -13 0 0 -7 -5 0 0 -1 0 -1 -1 -2 -4 -7 -8 -4 0 0 -3 -3 -13 -3 -3 -4 -3 -3 -4 -2 -7 -7 0 0 0 0 0 -1 0 -2
0 0 -1 -1 -10 -30 -2 -10 -24 -19 0 0 -1 0 0 -1 -1 -1 -2 -2 -5 -2 0 -3 0 0 -6 -11 -5 -1 -2 -2 -2 -4 -2 0 0 0 0 0 0 -2 0 0
-2 0 -1 0 -6 -45 -5 0 -14 0 -1 -1 0 -1 0 -2 -3 -2 0 -1 -8 0 -6 -1 -1 0 -1 -2 -2 -2 -2 -2 -3 -1 0 0 0 0 0 0 0 0 0 0
-1 -1 -2 -1 0 -15 -17 0 -12 -13 0 0 -1 -3 0 -4 -3 0 -3 0 -26 -10 -1 -4 -2 -1 -2 -2 -1 0 -3 -9 -1 -1 0 0 0 0 0 0 0 0 0 0
0 0 -2 -6 0 0 0 0 0 0 -1 0 -6 -1 -4 -9 0 0 0 0 -5 -7 -1 0 -2 -1 -1 -2 -1 0 0 0 0 -1 0 0 0 0 0 0 0 0 0 0
-1 0 -1 0 0 0 -1 0 0 -10 -1 -2 -15 -5 -5 -2 -1 0 0 0 0 -1 0 0 -3 -2 -2 -2 -2 0 0 -1 -1 -2 -1 0 0 0 0 0 0 0 0 0
-2 0 -3 -1 -6 -2 0 0 0 0 -5 -1 0 0 0 -1 -12 -19 0 0 0 -1 -1 -2 -2 -1 -2 -1 0 -4 -2 -1 -1 0 0 0 0 0 0 0 0 0 0 0
-5 0 0 -1 0 0 -1 0 0 0 0 0 0 0 0 0 0 0 0 -6 -1 -1 0 -2 -2 -3 -3 -2 -1 -1 -1 -4 -1 -1 0 0 0 0 0 0 0 0 0 0
-6 -6 -3 -1 0 -1 -7 0 -11 -7 0 0 0 0 0 0 0 0 0 -3 -12 -12 -14 -2 -2 -1 -2 -2 -4 -2 -3 -1 0 0 0 -2 0 0 0 -2 -1 0 0 0
-5 -5 -2 0 0 0 0 0 -1 0 0 0 0 0 0 0 0 0 -19 -7 -8 -8 -5 -1 -2 -3 -2 -5 -2 -1 -2 -3 -3 0 0 0 0 0 -1 0 0 0 0 0
0 -2 -4 0 -4 0 0 0 0 0 0 0 0 0 0 -9 -10 -2 -1 -1 -1 -1 -1 -1 -2 -19 -2 -1 -1 0 0 -1 -2 -2 0 0 0 0 0 0 0 0 0 0
0 0 -4 -6 -2 -3 0 0 0 0 0 0 0 0 0 -1 -4 -1 -1 -1 -3 -2 -1 -1 -2 -1 -12 -2 -1 0 -1 -1 -1 0 0 0 0 0 0 0 0 0 0 0
0 -1 -2 -6 -4 -1 -1 0 0 0 0 0 0 0 0 0 -1 0 -1 -4 -2 -2 -1 -1 -1 0 -2 0 0 0 0 0 -3 -2 0 0 0 0 0 0 0 0 0 0
-1 -1 -1 -1 -1 0 0 0 0 0 0 0 0 0 0 0 0 0 0 -2 -1 0 0 -1 -2 -1 0 0 0 0 0 0 0 0 0 0 0 0 0 0 0 0 0 0
-3 -1 0 0 0 0 -4 0 0 0 0 0 -2 0 0 0 0 0 0 -8 -2 0 -2 -7 -2 0 0 0 0 0 0 0 0 0 0 0 0 0 0 0 0 0 0 0
0 0 0 0 0 0 0 0 0 0 0 -1 -1 0 0 -1 0 0 -1 -1 -2 0 -1 -1 0 0 0 0 0 0 0 0 0 0 0 0 0 0 0 0 0 0 0 0
0 0 0 0 0 0 0 0 0 0 0 -1 -1 -1 -2 0 -1 -1 -2 -1 -1 -1 -1 0 0 0 0 0 0 0 0 0 0 0 0 0 0 0 0 0 0 0 0 0
0 0 0 0 0 0 0 0 0 0 0 -1 -1 0 -3 -4 -1 -1 0 0 0 0 0 0 0 0 0 0 0 0 0 0 0 0 0 0 0 0 0 0 0 0 0 0
0 0 0 0 0 0 0 0 0 0 0 0 0 0 -1 -2 0 0 0 -1 0 0 0 0 0 0 0 0 0 0 0 0 0 0 0 0 0 0 0 0 0 0 0 0
0 0 0 0 0 -1 -1 0 0 0 0 0 0 0 0 0 0 0 0 0 0 0 0 0 0 0 0 0 0 0 0 0 0 0 0 0 0 0 0 0 0 0 0 0
0 0 0 0 -1 0 -1 0 0 0 0 0 0 0 0 0 0 0 0 0 0 0 0 0 0 0 0 0 0 0 0 0 0 0 0 0 0 0 0 0 0 0 0 0
0 0 0 0 0 0 0 0 0 0 0 0 0 0 0 0 0 0 0 0 0 0 0 0 0 0 0 0 0 0 0 0 0 0 0 0 0 0 0 0 0 0 0 0
Wind_Speed
47 50 52 53 51 43 41 37 37 23 21 31 34 35 31 25 24 26 26 27 26 22 17 17 15 14 14 13 15 12 14 16 11 12 12 16 8 9 8 14 13 14 17 16
47 49 52 51 51 47 39 40 30 26 27 40 40 33 36 29 22 25 23 22 20 20 16 17 16 14 15 13 13 15 12 16 11 15 14 14 14 13 12 14 17 13 14 17
46 43 49 51 52 49 42 35 38 30 35 38 43 37 34 29 26 19 19 17 15 15 15 17 15 13 15 14 15 17 16 18 17 22 19 16 12 14 16 18 18 20 18 18
42 49 50 46 48 47 41 42 39 38 42 43 43 36 30 31 24 23 20 16 18 17 21 19 17 13 13 14 14 15 17 19 19 13 15 16 15 17 18 22 23 23 23 23
40 44 46 46 49 45 46 37 38 38 38 38 44 41 40 34 28 25 22 20 17 16 18 18 20 20 19 17 16 16 16 18 17 22 21 22 24 25 26 27 28 29 27 28
39 42 39 47 49 43 41 37 38 38 47 44 42 42 42 37 28 32 27 22 18 20 18 18 16 17 19 18 16 16 18 17 19 24 20 23 29 28 30 32 27 26 29 29
39 42 43 41 46 49 38 44 40 38 48 45 47 42 40 33 30 25 26 16 17 15 11 9 11 14 15 18 19 19 18 19 19 23 19 26 23 22 23 25 26 22 23 23
39 41 37 32 49 50 45 38 40 45 41 53 46 40 42 33 31 25 19 18 19 16 18 15 17 20 20 19 19 18 21 20 22 23 24 27 25 18 18 18 19 15 18 19
38 40 41 33 34 51 50 43 40 40 38 46 40 44 40 34 28 22 18 14 13 13 18 18 22 23 20 21 19 20 16 20 18 20 24 26 19 13 13 17 27 15 14 15
36 37 42 37 34 45 48 47 38 39 43 36 38 44 40 35 31 28 22 18 18 20 19 20 23 24 15 21 19 17 17 18 21 20 24 25 20 11 15 23 23 12 12 14
33 32 38 37 37 35 39 42 40 42 40 38 33 30 37 27 26 30 23 21 23 20 23 24 24 26 22 23 19 15 16 18 22 21 26 32 11 8 17 18 16 14 15 16
32 31 36 36 38 40 41 39 32 26 39 35 29 23 24 28 30 28 26 27 24 20 21 21 19 24 22 24 28 12 20 15 18 16 20 17 7 12 13 20 20 15 19 24
32 33 33 38 39 35 39 40 35 27 30 31 29 31 23 22 25 23 30 25 24 23 20 19 20 24 21 24 25 20 16 18 22 18 16 16 15 16 17 16 18 22 26 30
28 29 31 35 37 32 39 37 38 34 23 33 33 28 26 23 22 23 23 24 21 18 19 18 20 24 19 23 22 22 20 15 19 20 19 19 19 19 21 24 28 30 29 27
27 27 29 32 33 30 38 36 33 36 33 29 29 24 23 21 20 20 18 18 20 21 23 26 27 25 24 25 25 27 19 22 23 25 22 24 25 25 25 27 28 27 29 32
27 27 30 28 34 31 29 35 30 29 28 28 29 24 21 19 20 20 21 20 21 21 22 25 23 21 23 28 31 26 23 22 22 26 24 26 29 28 26 30 31 32 35 33
29 28 29 29 34 35 38 33 31 24 21 29 34 25 21 19 16 17 16 16 16 18 20 24 23 23 22 29 34 23 21 23 22 24 25 27 26 27 28 31 34 33 32 32
27 30 33 30 31 33 32 23 24 21 22 21 31 31 26 19 24 24 19 20 18 20 21 21 24 21 25 35 31 28 29 28 25 23 25 28 28 29 32 31 32 34 34 34
24 27 27 27 32 29 25 22 21 16 21 26 29 36 35 20 20 16 18 18 24 22 25 25 23 25 32 29 26 26 26 26 26 25 24 25 26 28 30 31 32 33 35 35
19 26 27 29 29 21 22 25 26 24 25 23 22 22 28 21 20 19 19 20 22 28 26 23 31 36 31 27 24 25 26 24 22 24 24 25 26 26 26 28 29 31 33 34
27 32 31 27 26 28 29 27 28 24 25 24 21 20 18 19 20 20 19 20 21 28 26 27 30 34 29 22 22 20 19 16 15 16 17 18 20 23 25 28 30 32 34 35
29 25 21 24 26 27 29 30 26 27 25 21 21 19 14 13 13 17 16 20 20 27 17 24 33 27 18 12 11 10 10 9 9 12 15 18 21 23 27 29 31 34 34 33
20 24 30 29 27 30 33 35 31 27 24 22 22 17 14 13 13 14 16 19 22 12 21 27 28 18 11 8 6 7 8 9 12 14 16 18 20 24 27 32 32 31 31 29
27 29 35 31 31 29 33 37 33 25 23 25 21 15 14 12 13 12 16 16 16 24 29 29 16 8 5 5 7 9 10 11 12 14 16 20 23 25 28 27 28 28 27 27
29 26 33 33 25 24 27 23 23 24 24 22 15 10 11 12 13 15 14 16 21 21 22 14 6 7 6 7 8 9 10 11 11 13 18 21 24 25 26 27 28 26 25 26
27 25 26 28 25 22 22 23 26 27 23 17 13 13 14 16 13 14 15 16 20 17 10 4 4 5 6 5 6 8 11 12 13 15 19 22 25 27 27 26 26 25 26 27
24 26 28 25 23 24 26 26 27 27 24 19 15 14 16 10 17 16 13 17 14 7 3 4 4 5 6 7 9 13 15 17 20 22 24 26 26 26 26 27 27 25 24 24
Wind_Direction
238 233 225 220 219 217 212 227 236 223 212 234 243 240 250 249 249 253 258 261 257 258 265 264 264 267 284 276 277 260 275 278 270 269 290 293 282 286 271 292 300 300 309 303
237 233 225 221 218 212 220 230 236 225 218 235 237 246 246 245 242 245 251 255 259 258 257 263 267 270 275 273 267 274 272 276 275 280 288 286 286 289 289 292 298 299 304 319
235 232 227 222 217 215 220 227 228 232 231 237 234 236 237 236 238 239 251 259 254 245 253 268 262 267 273 273 270 270 270 278 274 279 290 285 268 285 283 284 289 293 298 305
241 230 225 220 216 213 218 225 232 232 229 228 231 232 231 224 233 234 239 246 247 246 248 256 264 266 269 271 270 271 273 272 277 297 297 300 291 286 283 282 286 290 298 299
243 235 235 218 216 213 223 227 231 229 233 230 227 228 228 219 222 222 225 243 243 250 256 258 260 259 262 266 267 269 275 277 283 282 289 287 284 283 282 282 285 287 293 298
237 234 235 224 216 212 226 232 230 229 229 227 221 221 222 221 219 236 234 235 237 248 259 268 280 277 274 273 270 267 273 277 283 282 287 288 284 283 282 282 286 291 292 299
236 229 229 225 214 214 226 227 223 228 227 225 224 224 225 225 220 231 235 218 229 257 283 296 295 294 280 272 271 274 272 274 281 282 289 284 291 299 299 295 293 293 300 305
243 234 231 241 217 217 223 228 225 229 233 225 227 225 221 227 228 230 227 237 249 253 265 270 271 272 274 272 272 275 272 273 277 281 281 286 294 299 307 308 305 309 306 312
241 235 228 233 227 218 221 226 227 225 230 229 227 224 219 226 227 227 230 245 243 231 250 256 259 262 268 267 275 276 279 278 278 282 284 286 300 315 322 320 301 309 318 321
237 236 230 232 231 220 221 223 227 227 231 237 234 226 218 227 227 234 238 237 237 240 245 247 255 259 264 269 271 271 273 276 275 281 286 291 298 306 317 304 306 328 325 325
236 237 229 231 228 229 219 225 226 229 232 238 236 235 216 216 223 230 227 230 239 234 241 247 255 263 263 271 275 276 271 276 279 283 285 286 294 296 304 315 322 320 319 321
235 235 230 228 228 230 223 218 220 225 227 233 238 241 237 242 228 232 221 239 233 243 241 254 262 266 265 267 268 274 275 282 286 292 296 310 307 311 300 312 315 317 314 313
234 233 234 227 228 231 219 218 214 225 230 233 233 232 243 244 237 230 233 239 238 248 245 252 265 266 268 266 268 276 275 295 285 297 296 303 301 302 313 313 311 312 312 310
241 240 237 231 226 230 218 218 219 223 232 232 236 240 234 245 240 236 241 239 250 247 250 252 263 260 272 270 279 276 281 292 289 289 295 304 303 304 305 305 306 306 309 312
242 244 239 231 226 232 225 220 222 221 221 233 230 237 244 246 243 236 240 236 238 243 247 257 259 267 275 277 282 276 280 279 284 293 296 295 298 303 305 305 308 310 310 309
241 241 235 233 222 227 218 220 227 217 220 233 232 242 241 239 238 236 238 241 245 251 256 256 268 278 271 275 276 279 283 286 288 291 295 296 299 302 306 305 307 307 306 308
244 240 231 236 226 224 221 222 212 211 219 234 234 239 243 242 228 242 243 247 252 257 262 263 267 269 274 278 276 291 292 288 286 291 297 297 301 303 307 307 306 307 309 310
238 231 224 227 224 225 227 222 197 209 223 235 232 237 231 244 237 245 259 250 254 263 263 268 269 277 277 276 281 280 286 287 289 291 296 299 304 306 307 308 309 308 308 310
235 227 227 227 222 224 220 211 203 222 234 234 235 224 230 237 244 244 251 262 257 270 265 267 270 269 271 280 280 284 287 289 292 294 297 303 305 308 310 311 312 311 311 311
225 220 219 223 221 197 200 209 218 228 237 238 226 221 231 218 232 249 254 265 262 265 266 272 271 269 272 278 284 290 293 294 295 294 297 304 309 315 318 319 319 318 317 316
220 212 215 219 200 206 212 218 217 222 226 230 225 217 211 229 232 247 261 264 265 264 267 266 273 274 275 276 282 291 297 295 295 300 308 315 319 321 323 322 322 321 320 318
217 216 219 208 214 215 219 220 221 223 222 219 207 205 199 232 238 255 260 262 265 267 270 270 275 279 286 275 272 290 303 306 311 317 318 320 320 322 324 324 323 321 322 326
218 221 211 219 220 219 217 214 217 215 212 189 181 189 218 228 251 257 259 263 263 277 277 277 279 284 263 261 265 284 302 306 310 316 320 323 325 326 326 325 327 328 326 330
218 213 217 222 219 224 219 215 213 211 187 171 173 187 223 235 248 263 264 271 278 272 274 276 281 250 231 246 266 282 295 305 312 319 324 324 325 327 329 332 332 332 328 329
215 224 224 221 223 220 215 207 192 188 173 170 177 204 227 233 253 262 270 268 273 276 278 284 242 200 235 253 273 288 298 309 315 323 324 324 326 326 328 329 330 330 330 329
221 236 226 214 212 212 210 201 189 180 176 174 212 232 234 245 259 259 267 270 276 282 278 252 209 225 254 264 285 303 314 317 316 316 321 323 323 323 325 328 328 328 326 324
225 227 222 220 218 213 207 196 185 185 184 203 227 239 243 250 257 261 268 276 287 296 258 225 240 252 262 276 291 303 310 311 312 314 317 318 321 322 323 323 323 326 327 325